This demonstration page uses our WeatherBlox Daily Observations layout. Learn more.

Left ArrowRight Arrow

Hourly Observations for May 26, 2017

Temp ( °F °C ) Dew Point ( °F °C ) Humidity (%) Winds ( mph kmh ) Pressure ( in mb ) Visibility ( mi km ) Precip ( " mm )
12:53 am 00:53 Hazy 76 24.4 29 -1.7 18 18 SE 9 15 29.59 1002 6 10 0.00 0.00
1:53 am 01:53 Clear 78 25.6 33 0.6 19 19 S 6 9 29.61 1003 10 16 0.00 0.00
2:53 am 02:53 Clear 75 23.9 46 7.8 36 36 SE 7 11 29.61 1003 10 16 0.00 0.00
3:53 am 03:53 Clear 76 24.4 43 6.1 31 31 W 5 7 29.62 1003 10 16 0.00 0.00
4:53 am 04:53 Clear 70 21.1 47 8.3 44 44 Calm 29.65 1004 10 16 0.00 0.00
5:53 am 05:53 Clear 71 21.7 35 1.7 27 27 Calm 29.67 1005 10 16 0.00 0.00
6:53 am 06:53 Sunny 67 19.4 44 6.7 44 44 ESE 5 7 29.70 1006 10 16 0.00 0.00
7:53 am 07:53 Sunny 71 21.7 35 1.7 27 27 SSW 3 6 29.74 1007 8 13 0.00 0.00
8:53 am 08:53 Sunny 76 24.4 34 1.1 22 22 WSW 7 11 29.76 1008 7 11 0.00 0.00
9:53 am 09:53 Sunny 87 30.6 27 -2.8 11 11 WSW 12 19 29.77 1008 10 16 0.00 0.00
10:53 am 10:53 Sunny 90 32.2 25 -3.9 9 9 WSW 10 17 29.78 1008 10 16 0.00 0.00
11:53 am 11:53 Sunny 92 33.3 28 -2.2 10 10 WSW 9 15 29.77 1008 10 16 0.00 0.00
12:53 pm 12:53 Sunny 95 35 28 -2.2 9 9 SW 12 19 29.77 1008 10 16 0.00 0.00
1:53 pm 13:53 Sunny 96 35.6 24 -4.4 7 7 VRB 3 6 29.74 1007 10 16 0.00 0.00
2:53 pm 14:53 Sunny 98 36.7 21 -6.1 6 6 WSW 22 35 29.72 1006 10 16 0.00 0.00
3:53 pm 15:53 Sunny 99 37.2 24 -4.4 7 7 WSW 12 19 29.70 1006 10 16 0.00 0.00
4:53 pm 16:53 Sunny 99 37.2 25 -3.9 7 7 W 17 28 29.70 1006 10 16 0.00 0.00
5:53 pm 17:53 Sunny 98 36.7 26 -3.3 8 8 W 14 22 29.68 1005 10 16 0.00 0.00
6:53 pm 18:53 Sunny 98 36.7 26 -3.3 8 8 WSW 16 26 29.68 1005 10 16 0.00 0.00
7:53 pm 19:53 Sunny 96 35.6 24 -4.4 7 7 WSW 13 20 29.68 1005 10 16 0.00 0.00
8:53 pm 20:53 Clear 91 32.8 25 -3.9 9 9 SW 10 17 29.69 1005 10 16 0.00 0.00
9:53 pm 21:53 Clear 83 28.3 27 -2.8 13 13 SSW 7 11 29.70 1006 8 13 0.00 0.00
10:53 pm 22:53 Clear 80 26.7 28 -2.2 15 15 WSW 10 17 29.71 1006 10 16 0.00 0.00
11:53 pm 23:53 Clear 79 26.1 28 -2.2 15 15 SW 6 9 29.71 1006 10 16 0.00 0.00

Powered by AerisWeather